Location: Unspecified
(42.3650°N, 71.1030°W)
Time: 19:54:47
(UTC+00:00)

Vanguard 2 - Pass Details

Date: 30 June 2024
Orbit: 552 x 2913 km, 32.9° (Epoch: 22 July)

Event Time Altitude Azimuth Distance (km) Brightness Sun altitude
Exits shadow 05:28:13 12° 137° (SE) 3,835 10.7 -23.8°
Maximum altitude 05:29:33 12° 129° (SE) 3,938 10.9 -23.8°
Drops below altitude 10° 05:33:22 10° 110° (ESE) 4,456 11.3 -23.7°
Sets 05:41:15 0° 86° (E) 6,072 12.3 -23.4°
